User: anonymous   Login
Location: Maiden_LMO
(35.5760°N, 81.2120°W)
Time: 22:42:32
(UTC-04:00)
Language:

ADEOS II - Orbit

View from above orbital plane
View from above orbital plane
View from above satellite
View from above satellite

Ground track
Ground track

The orbit data is extracted from the following two-line orbital elements,

1 27597U 02056A   15142.47481184  .00000214  00000-0  10467-3 0  9991
2 27597 098.2858 137.3027 0002120 067.6187 043.4046 14.27083602647488
Epoch (UTC): 22 May 2015 11:23:43
Eccentricity: 0.0002120
inclination: 98.2858°
perigee height: 800 km
apogee height: 803 km
right ascension of ascending node: 137.3027°
argument of perigee: 67.6187°
revolutions per day: 14.27083602
mean anomaly at epoch: 43.4046°
orbit number at epoch: 64748

The dashed part of the orbit path shows where the satellite is in the earth's shadow,  

DLR